This demonstration page uses our WeatherBlox Daily Observations layout. Learn more.

39.92423, -83.80882

Hourly Observations for August 29, 2017

Temp ( °F °C ) Dew Point ( °F °C ) Humidity (%) Winds ( mph kmh ) Pressure ( in mb ) Visibility ( mi km ) Precip ( " mm )
12:44 am 00:44 Partly Cloudy 64 18 63 17 94 94 SE 8 13 30.03 1017 7 11.26538 0 0
12:53 am 00:53 Mostly Cloudy 64 18 63 17 94 94 ESE 7 11 30.03 1017 7 11.26538 0 0
12:56 am 00:56 Mostly Cloudy 64 17.8 63 17.2 96 96 ESE 7 11 30.05 1018 7 11.26538 0 0
1:28 am 01:28 Cloudy with Mist and Fog 64 18 63 17 94 94 SE 6 9 30.03 1017 6 9.65604 0 0
1:56 am 01:56 Cloudy with Mist and Fog 63 17.2 62 16.7 97 97 ESE 5 7 30.05 1018 6 9.65604 0 0
2:56 am 02:56 Cloudy with Mist and Fog 63 17.2 62 16.7 97 97 SSE 3 6 30.04 1017 5 8.0467 0 0
3:46 am 03:46 Cloudy with Mist and Fog 63 17 63 17 100 100 E 7 11 30.06 1018 2 3.21868 0 0
4:05 am 04:05 Cloudy with Mist and Fog 63 17 63 17 100 100 ESE 7 11 30.03 1017 2 3.21868 0 0
4:16 am 04:16 Cloudy with Mist and Fog 63 17 63 17 100 100 ESE 8 13 30.03 1017 4 6.43736 0 0
4:56 am 04:56 Cloudy with Mist and Fog 62 16.7 62 16.7 100 100 ESE 6 9 30.03 1017 6 9.65604 0 0
5:56 am 05:56 Cloudy with Mist and Fog 62 16.7 62 16.7 100 100 SE 3 6 30.04 1017 5 8.0467 0 0
6:10 am 06:10 Cloudy with Mist and Fog 63 17 63 17 100 100 SE 3 6 30.06 1018 5 8.0467 0 0
6:18 am 06:18 Cloudy with Nearby Thunderstorms 63 17 63 17 100 100 SSE 3 6 30.06 1018 6 9.65604 0 0
6:56 am 06:56 Cloudy with Thunderstorms 63 17.2 62 16.7 97 97 SSW 3 6 30.06 1018 4 6.43736 0.08 2.032
7:06 am 07:06 Cloudy with Thunderstorms 63 17 63 17 100 100 SSW 3 6 30.06 1018 5 8.0467 0.02 0.508
7:17 am 07:17 Cloudy with Rain 63 17 63 17 100 100 Calm 30.06 1018 2.5 4.02335 0.04 1.016
7:34 am 07:34 Cloudy with Rain 63 17 63 17 100 100 SE 6 9 30.06 1018 1.75 2.816345 0.08 2.032
7:53 am 07:53 Cloudy with Rain 63 17 63 17 100 100 SE 9 15 30.06 1018 2.5 4.02335 0.13 3.302
7:56 am 07:56 Cloudy with Rain 62 16.7 62 16.7 100 100 SSE 8 13 30.05 1018 3 4.82802 0.14 3.556
8:56 am 08:56 Mostly Sunny 63 17.2 62 16.7 97 97 SSE 6 9 30.04 1017 7 11.26538 0.05 1.27
9:56 am 09:56 Sunny 67 19.4 63 17.2 87 87 SE 7 11 30.04 1017 10 16.0934 0.01 0.254
10:03 am 10:03 Mostly Sunny 66 19 63 17 88 88 S 6 9 30.03 1017 10 16.0934 0 0
10:56 am 10:56 Mostly Sunny 69 20.6 63 17.2 81 81 S 3 6 30.05 1018 10 16.0934 0 0
11:27 am 11:27 Mostly Cloudy 72 22 64 18 78 78 VRB 3 6 30.03 1017 10 16.0934 0 0
11:56 am 11:56 Mostly Cloudy 72 22.2 63 17.2 73 73 SW 3 6 30.05 1018 10 16.0934 0 0
12:34 pm 12:34 Mostly Cloudy 72 22 63 17 73 73 VRB 5 7 30.03 1017 10 16.0934 0 0
12:56 pm 12:56 Mostly Cloudy 72 22.2 63 17.2 73 73 S 7 11 30.05 1018 10 16.0934 0 0
1:19 pm 13:19 Mostly Cloudy 73 23 64 18 74 74 VRB 3 6 30.03 1017 10 16.0934 0 0
1:56 pm 13:56 Partly Cloudy 74 23.3 64 17.8 71 71 SSE 6 9 30.03 1017 10 16.0934 0 0
2:07 pm 14:07 Mostly Cloudy 73 23 63 17 69 69 VRB 5 7 30 1016 10 16.0934 0 0
2:16 pm 14:16 Partly Cloudy 73 23 63 17 69 69 VRB 5 7 30 1016 10 16.0934 0 0
2:56 pm 14:56 Sunny 73 22.8 63 17.2 71 71 SW 5 7 30.02 1017 10 16.0934 0 0
3:56 pm 15:56 Mostly Cloudy 72 22.2 63 17.2 73 73 SW 6 9 30.01 1016 10 16.0934 0 0
4:56 pm 16:56 Sunny 72 22.2 64 17.8 76 76 SSW 7 11 30 1016 10 16.0934 0 0
5:56 pm 17:56 Sunny 71 21.7 65 18.3 81 81 SW 5 7 30 1016 10 16.0934 0 0
6:56 pm 18:56 Sunny 72 22.2 64 17.8 76 76 SW 3 6 30.01 1016 10 16.0934 0 0
7:56 pm 19:56 Mostly Sunny 68 20 65 18.3 90 90 SW 6 9 30 1016 10 16.0934 0 0
8:48 pm 20:48 Mostly Cloudy 66 19 64 18 94 94 W 3 6 30 1016 10 16.0934 0 0
8:56 pm 20:56 Mostly Cloudy 66 18.9 64 17.8 93 93 W 5 7 30.01 1016 10 16.0934 0 0
9:05 pm 21:05 Partly Cloudy 64 18 63 17 94 94 WSW 5 7 30 1016 10 16.0934 0 0
9:56 pm 21:56 Clear 64 17.8 62 16.7 93 93 W 6 9 30.03 1017 10 16.0934 0 0
10:56 pm 22:56 Clear 61 16.1 60 15.6 97 97 Calm 30.02 1017 7 11.26538 0 0
11:56 pm 23:56 Clear with Mist and Fog 60 15.6 60 15.6 100 100 Calm 30.02 1017 4 6.43736 0 0

Powered by AerisWeather